DW1735 Weather Reports


time (UTC)temp
C
wind
direction
speed
KPH
gust
KPH
rain 1hr
cm
rain 24hr
cm
rain mn
cm
humidity
%
barometer
mb
20260504001552 26 338 11.3 19.3 0.00 0.00 0.00 41 1009.5
20260504001049 26 333 9.7 17.7 0.00 0.00 0.00 43 1009.5
20260504000549 26 315 9.7 17.7 0.00 0.00 0.00 43 1009.6
20260504000131 26 326 11.3 17.7 0.00 0.00 0.00 43 1009.7
20260503235548 26 291 11.3 17.7 0.00 0.00 0.00 41 1009.6
20260503235049 26 341 8.0 17.7 0.00 0.00 0.00 41 1009.6
20260503234556 26 308 12.9 19.3 0.00 0.00 0.00 43 1009.7
20260503234048 26 310 11.3 20.9 0.00 0.00 0.00 43 1009.7
20260503233550 26 306 11.3 20.9 0.00 0.00 0.00 42 1009.8
20260503233052 26 349 11.3 20.9 0.00 0.00 0.00 44 1009.9
20260503232551 26 318 12.9 22.5 0.00 0.00 0.00 43 1010.0
20260503232048 26 331 9.7 22.5 0.00 0.00 0.00 44 1010.0
20260503231552 26 339 12.9 22.5 0.00 0.00 0.00 42 1010.0
20260503231050 26 335 12.9 22.5 0.00 0.00 0.00 43 1010.1
20260503230550 26 322 14.5 22.5 0.00 0.00 0.00 43 1010.2
20260503230059 26 344 11.3 20.9 0.00 0.00 0.00 45 1010.2
20260503225549 25 341 12.9 22.5 0.00 0.00 0.00 45 1010.3
20260503225048 25 358 12.9 22.5 0.00 0.00 0.00 44 1010.4
20260503224559 25 345 12.9 19.3 0.00 0.00 0.00 45 1010.4
20260503224050 26 304 11.3 19.3 0.00 0.00 0.00 45 1010.6
20260503223548 26 331 9.7 20.9 0.00 0.00 0.00 44 1010.6
20260503223056 25 327 12.9 20.9 0.00 0.00 0.00 43 1010.7
20260503222548 26 329 12.9 20.9 0.00 0.00 0.00 42 1010.8
20260503222047 25 329 11.3 20.9 0.00 0.00 0.00 43 1010.9
20260503221552 25 318 11.3 17.7 0.00 0.00 0.00 43 1010.9
20260503221047 25 343 8.0 17.7 0.00 0.00 0.00 44 1010.9
20260503220548 25 332 9.7 24.1 0.00 0.00 0.00 44 1011.0
20260503220054 25 321 11.3 24.1 0.00 0.00 0.00 45 1010.9
20260503215547 25 296 9.7 19.3 0.00 0.00 0.00 46 1011.0
20260503215048 25 313 11.3 22.5 0.00 0.00 0.00 46 1011.1
20260503214551 25 320 12.9 22.5 0.00 0.00 0.00 45 1011.1
20260503214048 25 347 14.5 24.1 0.00 0.00 0.00 45 1011.3
20260503213548 25 279 14.5 24.1 0.00 0.00 0.00 44 1011.3
20260503213052 25 305 14.5 24.1 0.00 0.00 0.00 45 1011.3
20260503212548 25 324 9.7 24.1 0.00 0.00 0.00 48 1011.3
20260503212047 25 355 11.3 24.1 0.00 0.00 0.00 45 1011.3
20260503211552 24 325 11.3 24.1 0.00 0.00 0.00 47 1011.4
20260503211047 24 332 14.5 27.4 0.00 0.00 0.00 48 1011.4
20260503210548 23 321 14.5 27.4 0.00 0.00 0.00 47 1011.4
20260503210051 23 318 14.5 27.4 0.00 0.00 0.00 47 1011.4
20260503205548 24 316 9.7 19.3 0.00 0.00 0.00 48 1011.5
20260503205051 24 300 9.7 25.7 0.00 0.00 0.00 49 1011.6
20260503204554 23 343 14.5 25.7 0.00 0.00 0.00 48 1011.7
20260503204048 23 313 19.3 25.7 0.00 0.00 0.00 48 1011.6
20260503203552 24 315 12.9 22.5 0.00 0.00 0.00 47 1011.8
20260503203101 24 323 12.9 22.5 0.00 0.00 0.00 48 1011.7
20260503202548 24 314 9.7 22.5 0.00 0.00 0.00 49 1011.6
20260503202051 24 297 12.9 22.5 0.00 0.00 0.00 49 1011.8
20260503201556 23 318 16.1 25.7 0.00 0.00 0.00 49 1011.8
20260503201051 23 312 14.5 25.7 0.00 0.00 0.00 51 1012.0
20260503200548 23 320 14.5 22.5 0.00 0.00 0.00 52 1012.0
20260503200053 23 311 9.7 19.3 0.00 0.00 0.00 52 1012.0
20260503195548 23 289 9.7 19.3 0.00 0.00 0.00 52 1012.2
20260503195050 23 328 9.7 17.7 0.00 0.00 0.00 53 1012.2
20260503194558 23 322 8.0 17.7 0.00 0.00 0.00 53 1012.3
20260503194049 23 283 8.0 20.9 0.00 0.00 0.00 54 1012.3
20260503193548 22 304 11.3 20.9 0.00 0.00 0.00 54 1012.5
20260503193056 22 316 8.0 17.7 0.00 0.00 0.00 55 1012.6
20260503192548 22 314 8.0 17.7 0.00 0.00 0.00 54 1012.5
20260503192048 22 308 9.7 19.3 0.00 0.00 0.00 53 1012.6
20260503191555 22 3 12.9 19.3 0.00 0.00 0.00 54 1012.7
20260503191048 22 326 12.9 19.3 0.00 0.00 0.00 54 1012.8
20260503190547 22 319 11.3 19.3 0.00 0.00 0.00 53 1012.8
20260503190056 22 325 11.3 19.3 0.00 0.00 0.00 54 1012.9
20260503185548 22 310 8.0 17.7 0.00 0.00 0.00 55 1012.9
20260503185048 22 305 11.3 17.7 0.00 0.00 0.00 56 1013.0
20260503184611 22 326 6.4 16.1 0.00 0.00 0.00 55 1013.1
20260503184049 22 336 6.4 14.5 0.00 0.00 0.00 57 1013.2
20260503183549 22 356 3.2 12.9 0.00 0.00 0.00 56 1013.2
20260503183100 22 346 3.2 12.9 0.00 0.00 0.00 57 1013.2
20260503182548 22 287 4.8 16.1 0.00 0.00 0.00 57 1013.2
20260503182048 22 351 8.0 17.7 0.00 0.00 0.00 56 1013.2
20260503181554 22 316 8.0 17.7 0.00 0.00 0.00 59 1013.3
20260503181048 22 21 4.8 16.1 0.00 0.00 0.00 56 1013.3
20260503180548 22 8 8.0 16.1 0.00 0.00 0.00 55 1013.3
20260503180057 22 37 9.7 20.9 0.00 0.00 0.00 58 1013.4
20260503175548 22 295 6.4 20.9 0.00 0.00 0.00 57 1013.3
20260503175047 22 35 9.7 19.3 0.00 0.00 0.00 57 1013.4
20260503174049 21 337 3.2 9.7 0.00 0.00 0.00 62 1013.4
20260503173550 20 254 3.2 6.4 0.00 0.00 0.00 63 1013.4
20260503173052 20 285 3.2 6.4 0.00 0.00 0.00 63 1013.5
20260503172548 20 251 1.6 17.7 0.00 0.00 0.00 61 1013.5
20260503172050 20 1 3.2 17.7 0.00 0.00 0.00 62 1013.5
20260503171610 20 18 3.2 12.9 0.00 0.00 0.00 59 1013.6
20260503171048 20 37 3.2 12.9 0.00 0.00 0.00 62 1013.5
20260503170548 20 16 6.4 14.5 0.00 0.00 0.00 60 1013.5
20260503150548 16 23 6.4 16.1 0.00 0.00 0.00 68 1013.7
20260503131047 12 68 4.8 11.3 0.00 0.00 0.00 79 1013.6
20260503130548 12 54 4.8 9.7 0.00 0.00 0.00 80 1013.5
20260503110548 14 89 3.2 8.0 0.00 0.00 0.00 71 1013.7
20260503081550 16 70 6.4 14.5 0.00 0.00 0.00 59 1014.0
20260503081048 16 74 4.8 14.5 0.00 0.00 0.00 58 1013.9
20260503080548 16 61 8.0 14.5 0.00 0.00 0.00 59 1013.9
20260503072548 17 47 6.4 16.1 0.00 0.00 0.00 57 1013.9
20260503072050 17 72 4.8 16.1 0.00 0.00 0.00 56 1013.8
20260503071606 17 52 6.4 14.5 0.00 0.00 0.00 56 1013.8
20260503071047 17 75 6.4 14.5 0.00 0.00 0.00 56 1013.8
20260503070549 17 63 6.4 14.5 0.00 0.00 0.00 56 1013.8
20260503060103 17 73 4.8 11.3 0.00 0.00 0.00 58 1013.7
20260503055048 17 47 4.8 14.5 0.00 0.00 0.00 59 1013.6
20260503054600 17 53 3.2 14.5 0.00 0.00 0.00 59 1013.6
20260503054048 17 49 4.8 14.5 0.00 0.00 0.00 59 1013.6
20260503053548 17 17 6.4 9.7 0.00 0.00 0.00 60 1013.6
20260503053055 17 22 4.8 11.3 0.00 0.00 0.00 61 1013.7
20260503052548 17 57 4.8 11.3 0.00 0.00 0.00 61 1013.6
20260503052047 17 45 4.8 11.3 0.00 0.00 0.00 61 1013.6
20260503051559 17 34 4.8 11.3 0.00 0.00 0.00 61 1013.6
20260503051048 17 57 6.4 11.3 0.00 0.00 0.00 61 1013.5
20260503050548 17 56 6.4 11.3 0.00 0.00 0.00 62 1013.5
20260503050058 17 73 6.4 11.3 0.00 0.00 0.00 61 1013.5
20260503045550 17 41 6.4 12.9 0.00 0.00 0.00 62 1013.5
20260503045049 17 49 4.8 12.9 0.00 0.00 0.00 62 1013.5
20260503044604 17 47 4.8 11.3 0.00 0.00 0.00 62 1013.4
20260503044048 17 62 3.2 11.3 0.00 0.00 0.00 62 1013.4
20260503043551 17 26 3.2 12.9 0.00 0.00 0.00 62 1013.2
20260503043104 17 43 3.2 12.9 0.00 0.00 0.00 63 1013.3
20260503042551 17 52 4.8 9.7 0.00 0.00 0.00 63 1013.2
20260503042048 17 63 6.4 9.7 0.00 0.00 0.00 63 1013.2
20260503041605 17 55 4.8 8.0 0.00 0.00 0.00 63 1013.2
20260503041049 17 54 3.2 8.0 0.00 0.00 0.00 64 1013.1
20260503040548 18 62 3.2 8.0 0.00 0.00 0.00 63 1013.1
20260503040053 18 31 3.2 8.0 0.00 0.00 0.00 63 1013.1
20260503035549 18 11 3.2 9.7 0.00 0.00 0.00 63 1012.9
20260503035048 18 18 4.8 9.7 0.00 0.00 0.00 62 1012.9
20260503034555 18 43 3.2 11.3 0.00 0.00 0.00 62 1012.8
20260503034049 18 45 3.2 16.1 0.00 0.00 0.00 62 1012.8
20260503033548 18 16 3.2 16.1 0.00 0.00 0.00 60 1012.7
20260503033050 19 14 3.2 14.5 0.00 0.00 0.00 60 1012.6
20260503032548 19 6 4.8 14.5 0.00 0.00 0.00 60 1012.6
20260503032049 19 2 6.4 16.1 0.00 0.00 0.00 59 1012.6
20260503031551 20 360 6.4 16.1 0.00 0.00 0.00 58 1012.6
20260503031049 20 12 4.8 11.3 0.00 0.00 0.00 57 1012.5
20260503030549 20 21 4.8 14.5 0.00 0.00 0.00 57 1012.5
20260503030052 20 78 4.8 14.5 0.00 0.00 0.00 57 1012.4
20260503025548 20 27 6.4 16.1 0.00 0.00 0.00 56 1012.4
20260503025048 21 27 4.8 16.1 0.00 0.00 0.00 56 1012.4
20260503024555 21 37 4.8 14.5 0.00 0.00 0.00 56 1012.4
20260503024048 21 338 3.2 14.5 0.00 0.00 0.00 55 1012.3
20260503023550 21 11 6.4 14.5 0.00 0.00 0.00 55 1012.2
20260503023104 21 9 4.8 17.7 0.00 0.00 0.00 54 1012.1
20260503022547 21 27 8.0 17.7 0.00 0.00 0.00 53 1012.2
20260503022049 21 31 6.4 16.1 0.00 0.00 0.00 53 1012.2
20260503021556 21 16 6.4 19.3 0.00 0.00 0.00 53 1012.1
20260503021049 22 18 6.4 19.3 0.00 0.00 0.00 53 1012.1
20260503020548 22 360 9.7 19.3 0.00 0.00 0.00 52 1012.1
20260503020057 22 20 6.4 27.4 0.00 0.00 0.00 52 1012.2
20260503015548 22 358 9.7 27.4 0.00 0.00 0.00 52 1012.1
20260503015050 22 11 8.0 24.1 0.00 0.00 0.00 51 1012.1
20260503014550 22 18 8.0 19.3 0.00 0.00 0.00 51 1012.2
20260503014048 23 345 6.4 17.7 0.00 0.00 0.00 52 1012.2
20260503013552 23 27 8.0 17.7 0.00 0.00 0.00 52 1012.2
20260503013049 23 10 9.7 16.1 0.00 0.00 0.00 52 1012.2
20260503012547 23 337 9.7 22.5 0.00 0.00 0.00 52 1012.2
20260503012049 23 23 9.7 22.5 0.00 0.00 0.00 51 1012.3
20260503011622 23 352 8.0 20.9 0.00 0.00 0.00 50 1012.3
20260503011050 23 303 9.7 20.9 0.00 0.00 0.00 50 1012.3
20260503010548 23 353 9.7 20.9 0.00 0.00 0.00 49 1012.3
20260503010058 23 27 9.7 20.9 0.00 0.00 0.00 49 1012.2
20260503005552 23 17 8.0 24.1 0.00 0.00 0.00 49 1012.3
20260503005049 23 360 12.9 24.1 0.00 0.00 0.00 49 1012.5
20260503004548 23 353 8.0 24.1 0.00 0.00 0.00 50 1012.5
20260503004049 23 340 9.7 24.1 0.00 0.00 0.00 49 1012.5
20260503003548 23 18 9.7 24.1 0.00 0.00 0.00 50 1012.5
20260503003054 23 3 8.0 24.1 0.00 0.00 0.00 49 1012.6
20260503002548 23 344 9.7 25.7 0.00 0.00 0.00 50 1012.5
20260503002048 23 340 14.5 25.7 0.00 0.00 0.00 49 1012.7